Location: A�e
(41.0370°N, 4.2946°W)
Time: 12:40:22
(UTC+00:00)

Daily predictions for brighter satellites

Satellite Brightness Start Highest point End
(mag) Time Altitude Azimuth Time Altitude Azimuth Time Altitude Azimuth
CZ-4 R/B 4.0 19:51:27 10° SSW 19:54:38 22° W 19:57:48 10° NW
Cosmos 1486 Rocket 4.0 19:51:21 10° S 19:56:39 74° ESE 20:02:00 10° NNE
Cosmos 1553 Rocket 4.0 19:52:31 10° S 19:58:35 71° E 20:04:48 10° NNE
Cosmos 1862 4.2 19:56:39 10° NNW 20:00:35 54° W 20:04:30 10° S
X-37B 1.6 19:57:49 10° WNW 20:00:53 43° N 20:03:58 10° E
Cosmos 1437 Rocket 2.7 19:57:24 10° S 20:01:14 66° E 20:05:10 10° NNE
SL-08 ROCKET BODY 4.4 19:55:35 10° N 20:01:28 69° E 20:07:15 10° SSE
Cosmos 2084 4.1 20:00:25 10° S 20:04:01 30° ESE 20:07:41 10° NE
Resurs 01 Rocket 2.9 20:02:33 10° ESE 20:06:12 25° ENE 20:09:50 10° NNE
USA 186 2.0 20:06:19 10° S 20:08:47 49° W 20:11:07 10° NNW
USA 290 3.1 20:05:54 10° N 20:08:54 34° ENE 20:11:34 12° SE
Cosmos 1933 3.7 20:08:06 10° SSE 20:11:55 42° E 20:15:45 10° NNE
Cosmos 1417 Rocket 4.5 20:06:53 10° S 20:13:04 78° E 20:19:15 10° N
Cosmos 2278 Rocket 3.3 20:18:14 10° SSE 20:22:32 23° E 20:26:49 10° NE
Cosmos 1606 3.8 20:19:03 10° SSW 20:22:41 47° W 20:26:22 10° N
BREEZE-M DEB (TANK) 4.1 20:22:53 10° NW 20:24:30 14° NNW 20:25:47 10° NNE
ERS-2 3.9 20:22:08 10° N 20:25:29 35° WNW 20:28:48 10° SW
Cosmos 1782 3.6 20:22:14 11° SSE 20:25:39 32° E 20:29:13 10° NNE
GPS 2-04 Rocket1 3.7 20:22:43 10° SW 20:26:18 29° SSE 20:28:42 16° ESE
Cosmos 1844 Rocket 3.5 20:21:07 10° SW 20:26:33 55° WNW 20:32:03 10° NNE
IGS 5A 4.3 20:24:31 15° SE 20:27:29 34° ENE 20:31:15 10° N
Cosmos 1242 Rocket 2.5 20:24:36 10° S 20:28:08 60° E 20:31:39 10° NNE
Intercosmos 25 Rocket 3.9 20:27:01 10° N 20:32:38 72° W 20:36:18 10° S
BREEZE-M DEB (TANK) 3.6 20:23:13 10° WNW 20:33:14 73° NNE 20:35:39 18° ESE
Cosmos 1805 Rocket 3.7 20:30:27 10° N 20:34:49 77° W 20:39:10 10° S
SJ-6B 3.9 20:32:18 10° S 20:36:00 43° W 20:39:48 10° NNW
CZ-4C R/B 3.7 20:30:34 10° NNW 20:37:22 42° NE 20:43:47 15° ESE
IRIS 3.5 20:37:18 10° W 20:39:38 77° SSW 20:40:56 27° ESE
Cosmos 1633 Rocket 3.5 20:36:47 10° N 20:41:00 43° ENE 20:43:38 21° SE
ATLAS 5 CENTAUR R/B 2.4 20:41:08 10° NNW 20:46:55 82° NE 20:51:47 20° SE
Cosmos 1328 Rocket 3.8 20:44:41 16° SSE 20:48:02 49° E 20:52:18 10° NNE
Cosmos 1503 Rocket 4.3 20:42:59 10° SSW 20:48:07 68° WNW 20:53:20 10° NNE
Cosmos 1812 3.8 20:47:18 23° ESE 20:48:09 25° E 20:51:21 10° NNE
Cosmos 1777 Rocket 4.2 20:44:28 10° S 20:49:26 47° ESE 20:54:25 10° NNE
Meteor 1-25 Rocket 4.3 20:43:33 10° N 20:49:26 89° W 20:54:48 13° S
DELTA 2 R/B (1) 4.0 20:45:43 10° W 20:51:01 47° SSW 20:54:11 23° SE
Cosmos 1470 Rocket 4.4 20:49:10 10° N 20:53:16 34° ENE 20:55:00 25° ESE
ARIANE 5 R/B 3.8 20:52:22 21° ESE 20:53:58 26° ENE 20:57:35 10° NNE
Ariane Rocket 3.6 20:51:11 10° S 20:56:06 54° W 21:01:04 10° NNW
Resurs 1-3 4.3 20:53:24 10° S 20:57:40 51° W 21:01:57 10° NNW
SL-4 R/B 4.1 20:55:18 10° W 20:58:46 22° SW 21:01:34 13° S
Cosmos 1666 4.2 20:57:24 10° NNE 21:00:10 19° ENE 21:00:28 19° E
Cosmos 1833 Rocket 3.3 20:58:59 10° N 21:04:20 42° ENE 21:07:04 25° ESE
Cosmos 1437 2.2 21:05:01 54° SSE 21:05:32 76° E 21:08:23 10° NNE
Cosmos 1933 Rocket 4.5 21:03:38 10° NNE 21:07:29 30° ENE 21:08:26 28° E
Cosmos 1666 Rocket 3.7 21:05:03 10° NNW 21:09:26 72° W 21:12:10 22° S
Cosmos 1709 Rocket 4.0 21:05:32 10° N 21:11:39 84° W 21:16:16 19° S
CZ-2C R/B 3.6 21:12:39 10° NNE 21:17:10 87° WNW 21:20:46 16° SSW
USA 245 3.7 21:20:53 27° NNE 21:20:53 27° NNE 21:22:07 10° N
SJ 16-02 1.6 21:19:29 40° SE 21:20:26 47° ESE 21:24:42 10° NNE
JB-3 4.5 21:18:02 10° NNE 21:21:47 47° E 21:21:59 46° ESE
SPOT 1/Viking Rocket 3.5 21:23:33 32° SSE 21:26:04 87° ENE 21:31:17 10° NNW
USA 308 4.3 21:22:58 10° NW 21:26:48 31° NNE 21:28:43 21° ENE
Cosmos 1500 3.1 21:26:29 10° N 21:30:15 81° W 21:30:59 55° S
ATLAS 2AS CENTAUR R/B 4.1 21:26:21 10° NNW 21:32:44 30° NE 21:37:04 17° E
Iridium 4 Rocket 3.9 21:30:58 36° SSE 21:33:09 60° E 21:38:58 10° N
Terra 2.7 21:33:01 31° E 21:33:51 33° ENE 21:38:07 10° N
OE (NEXTSAT) 4.4 21:33:41 10° WNW 21:37:09 70° NNE 21:37:14 69° NE
X-37B 1.4 21:34:28 10° WNW 21:36:59 46° WSW 21:36:59 46° WSW
SPOT 5 3.2 21:38:33 43° ESE 21:39:51 56° ENE 21:45:00 10° N
Resurs 01 Rocket 3.2 21:39:48 16° SSW 21:42:33 29° W 21:46:27 10° NW
Cosmos 2082 Rocket 2.8 21:38:56 10° NNW 21:44:19 44° ENE 21:45:50 36° E
Cosmos 2228 Rocket 3.4 21:45:35 47° E 21:45:35 47° E 21:49:44 10° NNE
Cosmos 158 Rocket 4.3 21:41:23 10° N 21:46:06 46° ENE 21:46:51 43° E
COSMOS 2406 3.1 21:45:16 10° NNW 21:50:57 84° WSW 21:52:38 48° SSE
Cosmos 1271 Rocket 2.7 21:54:20 88° SW 21:54:22 89° W 21:58:24 10° N
Meteor 2-6 Rocket 4.4 21:54:18 27° SSW 21:57:16 66° W 22:02:46 10° N
Cosmos 1538 Rocket 4.0 21:52:33 10° NNW 21:57:55 81° WSW 21:59:07 55° S
Meteor 1-27 Rocket 3.8 21:58:45 51° SE 21:59:51 61° E 22:05:40 10° NNE
Spot 2 Rocket 3.9 22:02:16 41° SSW 22:03:43 55° W 22:08:41 10° NNW
Cosmos 2278 Rocket 3.0 22:00:43 10° SW 22:06:12 50° WNW 22:11:43 10° NNE
USA 305 3.2 22:03:10 10° NW 22:07:23 58° NE 22:07:27 58° NE
Milstar 3 3.9 21:57:27 10° WSW 22:09:31 39° S 22:10:46 38° SSE
ERS-1 Rocket 3.0 22:10:19 60° SSW 22:11:08 73° WSW 22:16:10 10° NNW
Cosmos 1943 Rocket 3.2 22:13:54 30° ENE 22:13:54 30° ENE 22:17:35 10° NE
Cosmos 1680 Rocket 4.0 22:09:18 10° N 22:14:26 46° ENE 22:14:52 45° E
Cosmos 2369 Rocket 4.2 22:17:09 15° ENE 22:17:09 15° ENE 22:18:40 10° ENE
Centaur D AC-29 4.1 13:49:13 10° SSW 22:16:31 41° S 22:20:12 36° SSE
Cosmos 1869 Rocket 3.7 22:12:12 10° N 22:16:04 66° NNE 22:16:04 66° NNE
CZ-4C R/B 3.4 22:18:56 10° NW 22:26:17 55° WSW 22:28:58 40° SSW
USA 306 3.3 22:22:27 10° NW 22:26:02 60° NNW 22:26:02 60° NNW
Meteor 1-11 Rocket 3.9 22:23:23 10° NNW 22:29:20 72° W 22:30:24 59° SSW
ARIANE 5 R/B 4.1 22:29:54 27° WSW 22:30:20 27° W 22:34:03 10° NW
ATLAS 5 CENTAUR R/B 4.3 22:27:09 10° WNW 22:31:15 19° WSW 22:33:19 16° SW
Cosmos 1707 Rocket 4.3 22:32:59 45° NE 22:32:59 45° NE 22:36:11 10° NNE
Cosmos 1340 Rocket 3.8 22:28:09 10° N 22:31:04 42° NNE 22:31:04 42° NNE
DNEPR-1 R/B 4.5 22:34:46 52° ENE 22:34:46 52° ENE 22:38:57 10° NE
SL-8 Rocket 4.4 22:34:58 10° N 22:41:06 48° ENE 22:41:33 47° E
Cosmos 1536 4.0 22:43:19 10° NNW 22:46:16 41° NW 22:46:16 41° NW
Cosmos 1898 Rocket 3.5 22:47:28 79° WNW 22:47:29 79° WNW 22:52:51 10° NNE
Cosmos 1833 Rocket 4.0 22:43:19 10° NW 22:48:00 28° WSW 22:48:46 27° WSW
Cosmos 923 Rocket 4.2 22:45:31 10° NNW 22:50:32 63° W 22:50:32 63° W
Cosmos 1743 4.2 22:47:13 10° N 22:49:32 35° N 22:49:32 35° N
Cosmos 2154 Rocket 4.4 22:47:13 10° NNW 22:53:21 55° W 22:54:30 48° SW
USA 307 4.2 22:49:07 10° NW 22:51:43 35° WNW 22:51:43 35° WNW
SJ 16-02 4.0 22:56:25 10° W 22:59:17 17° WNW 23:02:09 10° NNW
Cosmos 2297 3.9 23:04:37 64° W 23:05:07 67° WNW 23:10:48 10° NNE
Cosmos 1733 Rocket 4.1 23:01:58 10° N 23:04:54 43° N 23:04:54 43° N
Cosmos 962 Rocket 4.4 23:01:09 10° N 23:07:16 73° W 23:07:34 72° WSW
NOSS 3-4 (A) 4.2 23:03:46 10° NW 23:10:43 52° WSW 23:11:32 50° SW
NOSS 3-4 (C) 4.2 23:03:52 10° NW 23:10:49 53° WSW 23:11:38 51° SW
Cosmos 1959 Rocket 4.5 23:05:05 10° N 23:11:16 67° E 23:11:16 67° E
Terra 3.5 23:11:54 25° W 23:11:54 25° W 23:15:33 10° NW
Meteor 1-18 Rocket 4.3 23:16:27 71° NE 23:16:27 71° NE 23:21:30 10° NNE
ATLAS 2AS CENTAUR R/B 2.6 23:17:07 10° NW 23:24:19 70° WSW 23:24:29 69° SW
Cosmos 2082 Rocket 3.7 23:23:34 10° NW 23:27:41 25° W 23:27:41 25° W
Cosmos 2181 Rocket 4.0 23:29:26 70° W 23:29:34 70° W 23:35:42 10° N
Cosmos 44 4.1 23:26:16 10° NW 23:30:23 50° WNW 23:30:23 50° WNW
Cosmos 2366 rocket 4.0 23:34:37 10° NNW 23:40:37 72° W 23:40:37 72° W
Cosmos 1821 Rocket 4.4 23:35:09 10° N 23:41:23 51° ENE 23:41:25 51° E
Lacrosse 5 4.5 23:54:51 10° ENE 23:54:51 10° ENE 23:54:56 10° ENE
